Regional Weather Roundup
Issued by NWS

Home | Current Version | Previous Version | Graphics & Text | Print | Product List | Glossary On
Versions: 1 2 3 4 5 6 7 8 9 10 11 12 13 14 15 16 17 18 19 20 21 22 23 24 25 26 27 28 29 30 31 32 33 34 35 36 37 38 39 40 41 42 43 44 45 46 47 48 49 50
000
ASUS45 KBOI 230210
RWRID
WEATHER ROUNDUP FOR IDAHO
NATIONAL WEATHER SERVICE BOISE ID
700 PM MST MON DEC 22 2014

NOTE: "FAIR" INDICATES FEW OR NO CLOUDS BELOW 12000 FEET
WITH NO SIGNIFICANT WEATHER AND/OR OBSTRUCTIONS TO VISIBILITY

IDZ012-014-230300-
SOUTHWEST IDAHO


CITY           SKY/WX    TMP DP  RH WIND       PRES   REMARKS
BOISE          PTCLDY    39  28  64 NW5       30.28R
CALDWELL       PTCLDY    39  25  56 W6        30.32R WCI  35
MOUNTAIN HOME  CLEAR     36  29  74 W7        30.27R WCI  30
$$

IDZ016-017-230300-
SOUTHCENTRAL IDAHO


CITY           SKY/WX    TMP DP  RH WIND       PRES   REMARKS
BURLEY         CLEAR     35  28  75 W14G24    30.15R WCI  26
JEROME         CLEAR     35  28  75 W18       30.20R WCI  24
TWIN FALLS     CLEAR     36  27  69 W29G37    30.19R WCI  23
$$

IDZ019>023-230300-
SOUTHEAST IDAHO


CITY           SKY/WX    TMP DP  RH WIND       PRES   REMARKS
IDAHO FALLS    CLEAR     31  24  75 N7        30.10R WCI  24
POCATELLO      CLEAR     32  23  69 N8        30.12R WCI  25
REXBURG        PTCLDY    30  21  69 E5        30.08R WCI  25
$$

IDZ006-010-011-018-031-032-230300-
CENTRAL IDAHO MOUNTAINS


CITY           SKY/WX    TMP DP  RH WIND       PRES   REMARKS
MCCALL         PTCLDY    24  22  91 CALM      30.22R
HAILEY         PTCLDY    36  18  48 NW6       30.11R WCI  31
STANLEY          N/A     22  11  62 CALM      30.19R
SALMON         CLOUDY    34  19  55 CALM      30.20R
CHALLIS        MOCLDY    29  16  58 NW9       30.20R WCI  20
$$

IDZ002-004-006-007-026-230300-
NORTHERN IDAHO


CITY           SKY/WX    TMP DP  RH WIND       PRES   REMARKS
LEWISTON       MOCLDY    43  30  60 SW7       30.32R
LOWELL           N/A     37  35  92 CALM      30.34R
COEUR D`ALENE  CLEAR     36  28  75 SW8       30.25S WCI  29
MULLAN PASS    CLOUDY    24  22  91 VRB5      30.16R WCI  18
$$



USA.gov is the U.S. government's official web portal to all federal, state and local government web resources and services.